GEFSNGP_con_probscp_150.txt.gz
Probability
0 0 0 0 0 0 0 0 0 0 1 6 10 12 17 29 41 52 62 68 69 70 73 72 66 57 48 45 43 39 32 26 21 16 12 10 9 8 5 3 3 4 5 6
0 0 0 0 0 0 0 0 0 0 2 8 14 15 19 28 41 52 61 66 69 71 74 73 67 58 53 48 44 40 34 27 21 15 11 9 9 9 9 8 6 5 5 5
0 0 0 0 0 0 0 0 0 0 4 12 20 26 29 33 42 51 58 63 69 74 76 74 67 61 57 53 46 42 37 28 21 15 12 11 12 13 13 12 9 6 5 5
0 0 0 0 0 0 0 0 2 3 7 16 25 32 37 39 45 52 58 66 75 79 79 75 67 61 59 54 47 42 37 29 23 19 17 16 16 15 15 13 10 8 7 8
1 0 0 0 0 0 0 2 6 10 16 22 24 30 40 50 57 61 66 76 83 83 82 76 69 64 60 55 48 41 36 30 25 23 22 20 17 16 14 13 11 9 8 8
1 0 0 0 1 1 4 11 19 26 31 33 33 39 53 68 74 74 75 81 85 84 82 79 73 68 64 60 53 44 38 33 28 26 26 23 18 15 13 12 11 9 9 8
1 1 2 4 6 12 22 35 43 47 50 55 57 63 75 83 84 81 79 80 81 82 82 80 75 70 66 62 56 47 40 35 32 29 26 23 19 16 13 11 10 9 8 7
3 6 15 20 22 33 49 57 58 59 63 70 75 80 84 86 85 82 80 79 80 81 81 77 73 68 64 59 53 47 41 37 33 30 25 20 19 17 13 11 10 9 7 5
13 19 33 38 39 46 57 59 56 57 62 67 73 78 82 84 83 81 78 76 77 78 76 72 67 64 60 55 49 44 41 37 33 29 25 22 19 16 13 11 10 8 6 4
26 32 39 44 46 47 49 50 50 51 54 59 66 71 75 79 79 76 71 71 73 75 73 66 61 56 54 49 43 39 36 33 29 26 23 21 18 15 14 11 8 6 5 4
33 36 39 42 46 47 46 46 47 47 50 55 60 65 69 72 73 69 65 66 69 70 67 60 53 48 44 40 35 32 29 26 23 21 18 16 13 12 11 8 5 3 3 3
30 34 38 41 43 44 44 44 44 45 49 52 56 60 63 64 65 64 62 61 61 60 57 50 44 38 33 30 29 27 25 22 19 17 15 12 10 9 6 4 2 1 1 1
24 28 34 37 38 38 39 40 41 43 47 51 55 58 58 57 55 55 54 51 48 46 43 39 35 29 25 24 25 24 22 20 17 15 12 10 9 7 5 2 0 0 0 0
21 23 27 32 35 35 35 38 40 41 44 48 52 54 52 49 46 43 41 38 37 34 31 28 26 22 20 20 21 20 19 17 15 13 11 9 7 6 4 2 1 1 0 0
19 21 23 25 27 27 29 33 35 36 36 38 42 44 43 40 35 30 28 29 30 28 24 20 18 16 16 17 17 16 15 13 11 10 8 7 5 4 3 3 3 2 1 0
15 17 17 16 17 18 19 23 27 28 28 29 31 34 33 29 23 20 20 22 24 25 21 18 15 13 12 12 12 12 10 8 6 5 5 5 4 3 3 3 3 2 1 0
10 10 10 10 10 11 13 16 18 20 22 23 24 24 24 20 16 15 16 17 21 22 20 17 14 10 8 8 8 7 5 3 2 2 3 2 2 3 3 3 3 3 1 0
4 5 5 5 6 8 10 12 12 14 16 18 17 15 16 16 13 12 13 15 16 16 16 14 11 6 5 5 4 4 3 1 1 2 2 2 2 3 3 3 3 3 2 1
3 3 3 2 2 4 7 9 9 10 12 13 10 9 12 13 12 11 12 12 10 9 10 10 7 4 3 3 2 2 2 1 1 1 1 1 2 2 3 3 3 3 2 1
3 2 1 0 1 1 4 7 9 9 9 9 7 8 12 15 15 14 13 11 8 7 8 7 4 3 3 2 1 1 1 0 0 0 0 0 1 1 1 2 2 2 1 0
3 2 1 2 3 3 4 6 8 8 7 6 6 9 14 17 17 16 15 13 11 9 6 4 3 3 3 1 0 0 0 0 0 0 0 0 0 0 0 1 1 1 0 0
5 4 4 4 6 6 7 8 7 7 7 7 8 11 16 18 18 16 14 13 11 7 4 3 3 3 2 1 0 0 0 0 0 0 0 0 0 0 0 0 0 0 0 0
7 7 7 7 8 8 9 9 9 11 13 14 14 15 16 16 15 12 10 8 6 3 1 2 2 1 1 0 0 0 0 0 0 0 0 0 0 0 0 0 0 0 0 0
6 6 7 8 7 7 7 8 11 15 18 18 17 16 15 12 9 6 5 3 1 0 0 1 1 0 0 0 0 0 0 0 0 0 0 0 0 0 0 0 0 0 0 0
4 3 4 5 4 3 4 6 10 14 17 15 13 12 11 8 4 2 1 0 0 0 0 0 0 0 0 0 0 0 0 0 0 0 0 0 0 0 0 0 0 0 0 0
2 1 1 2 1 1 1 3 6 9 11 10 8 6 5 3 1 0 0 0 0 0 0 0 0 0 0 0 0 0 0 0 0 0 0 0 0 0 0 0 0 0 0 0
1 0 1 1 1 0 0 2 3 6 8 8 5 4 2 0 0 0 0 0 0 0 0 0 0 0 0 0 0 0 0 0 0 0 0 0 0 0 0 0 0 0 0 0

GEFSNGP_con_probscp_156.txt.gz
Probability
0 0 0 0 0 0 0 0 0 1 2 3 8 17 23 30 41 46 46 49 52 49 46 43 38 33 31 28 22 16 11 8 5 3 1 0 0 0 0 0 0 0 0 0
0 0 0 0 0 0 0 1 2 2 5 8 14 23 28 36 46 51 51 54 56 54 54 51 43 35 32 30 24 18 14 10 6 4 3 1 1 0 0 0 0 0 0 0
0 0 0 0 0 0 2 6 7 8 12 18 25 30 34 42 53 60 62 63 62 61 61 57 48 39 35 32 26 20 16 12 7 6 5 4 3 1 1 0 0 0 1 1
0 0 0 0 0 1 6 13 19 21 24 28 32 35 37 43 55 64 68 68 67 66 65 60 52 44 39 33 26 20 15 10 6 5 5 5 4 3 1 0 0 0 0 0
0 0 0 3 4 5 11 22 31 35 37 39 40 41 40 43 52 61 66 67 68 70 69 63 57 52 45 35 25 17 12 7 4 4 4 4 4 2 1 0 0 0 0 0
0 0 2 9 14 13 18 30 38 43 48 50 49 47 45 47 53 60 65 67 69 72 72 66 62 58 52 40 25 15 10 6 5 5 5 4 2 1 0 0 0 0 0 0
0 0 3 13 20 19 22 32 41 47 53 58 58 56 56 57 62 67 70 69 70 73 72 68 63 57 51 40 26 16 12 9 6 5 4 2 1 0 0 0 1 1 1 0
0 0 5 13 19 21 25 34 41 48 54 59 65 68 68 68 70 73 72 70 71 70 68 64 59 52 44 35 26 17 13 10 7 4 2 0 0 0 0 0 1 2 1 1
6 8 12 17 20 23 30 38 42 46 53 60 65 70 71 70 70 71 70 67 65 63 60 56 51 45 39 31 24 17 12 8 7 5 2 0 0 0 0 0 1 1 1 0
14 17 20 21 23 27 33 38 42 47 53 57 59 62 64 65 66 67 64 60 56 55 53 49 42 37 33 27 20 16 13 9 8 6 3 1 1 1 1 1 1 0 0 0
14 17 17 17 20 26 31 35 41 48 52 53 54 55 56 57 58 57 54 51 48 46 45 41 35 30 27 22 17 17 16 12 9 7 4 2 2 2 2 2 1 0 0 0
8 9 9 10 13 18 25 31 39 46 48 49 48 48 48 47 44 41 40 39 36 34 35 34 30 26 23 19 16 17 16 14 11 7 4 3 3 3 3 2 1 0 0 0
5 5 6 6 8 11 17 23 29 35 37 38 39 38 37 36 32 29 27 25 22 20 22 24 23 21 18 16 15 15 14 13 10 6 3 2 2 2 2 1 0 0 0 0
3 4 5 5 5 7 11 14 17 19 21 24 25 26 27 27 25 21 17 13 11 10 12 13 13 13 11 10 12 12 11 9 7 3 1 1 1 1 1 0 0 0 0 0
3 3 4 4 4 5 6 8 9 10 11 14 16 18 19 18 15 13 10 7 6 6 6 6 7 7 6 6 8 9 8 6 4 1 0 0 0 0 0 0 0 0 0 0
3 3 3 3 3 3 3 4 5 6 6 8 10 12 11 9 7 6 5 5 4 5 5 5 5 5 4 5 6 7 6 4 2 1 0 0 0 0 0 0 0 0 0 0
3 3 3 2 1 1 1 1 2 2 2 3 6 7 7 6 4 2 3 3 3 4 4 3 3 3 3 4 5 6 5 4 2 1 0 0 0 0 0 0 0 0 0 0
1 2 2 1 0 0 0 0 0 0 1 2 4 5 5 5 4 2 1 1 2 3 2 1 1 1 1 3 4 4 4 3 3 1 0 0 0 0 0 0 0 0 0 0
0 1 1 0 0 0 0 0 0 0 1 2 3 3 3 3 3 2 1 1 1 1 1 0 0 0 1 2 3 3 3 3 3 2 1 0 0 0 0 0 0 0 0 0
0 0 0 0 0 0 0 0 0 0 0 1 1 1 1 1 2 2 2 1 0 0 0 0 0 0 0 1 2 3 3 3 3 2 1 0 0 0 0 0 0 0 0 0
0 0 0 0 1 1 0 0 0 0 0 0 0 0 0 0 1 1 1 0 0 0 0 0 0 0 0 0 1 2 3 3 3 3 1 0 0 0 0 0 0 0 0 0
0 0 0 1 1 1 0 0 0 0 0 0 0 0 0 0 0 0 0 0 0 0 0 0 0 0 0 0 0 1 2 3 3 3 2 1 0 0 0 0 0 0 0 0
0 0 0 1 1 1 0 0 0 0 0 0 0 0 0 0 0 0 0 0 0 0 0 0 0 0 0 0 0 0 1 3 3 3 3 2 1 0 0 0 0 0 0 0
0 0 0 0 0 0 0 0 0 0 0 0 0 0 0 0 0 0 0 0 0 0 0 0 0 0 0 0 0 0 1 2 3 3 3 2 1 0 0 0 0 0 0 0
0 0 0 0 0 0 0 0 0 0 0 0 0 0 0 0 0 0 0 0 0 0 0 0 0 0 0 0 0 0 0 1 3 3 3 2 1 0 0 0 0 0 0 0
0 0 0 0 0 0 0 0 0 0 0 0 0 0 0 0 0 0 0 0 0 0 0 0 0 0 0 0 0 0 0 1 2 2 2 2 1 0 0 0 0 0 0 0
0 0 0 0 0 0 0 0 0 0 0 0 0 0 0 0 0 0 0 0 0 0 0 0 0 0 0 0 0 0 0 0 1 1 1 1 0 0 0 0 0 0 0 0

GEFSNGP_con_probscp_162.txt.gz
Probability
0 0 0 0 1 0 0 0 0 0 1 3 4 4 7 11 14 16 17 16 16 18 19 17 16 14 12 11 8 6 5 4 3 2 1 1 0 0 0 1 2 2 1 0
0 0 0 1 1 1 0 1 1 2 3 4 5 7 10 16 21 22 20 18 19 22 24 22 20 19 17 15 12 9 7 6 6 5 3 2 1 0 0 1 1 1 0 0
0 0 0 1 1 2 3 5 6 6 6 7 9 13 17 22 28 28 25 24 26 28 29 27 27 27 26 22 19 14 10 9 8 6 4 2 1 0 0 0 0 0 0 0
0 0 0 2 4 7 9 10 11 12 12 12 15 19 22 25 29 30 29 30 31 33 32 30 31 34 34 28 23 17 11 8 7 4 2 1 1 0 0 0 0 0 0 0
0 0 0 3 8 12 13 13 14 16 18 20 22 23 24 25 30 32 31 31 33 36 36 33 33 37 38 33 24 16 11 6 3 2 1 1 1 0 0 0 0 0 0 0
0 0 0 4 11 14 13 12 15 20 24 27 27 25 24 26 32 35 34 32 34 39 40 37 36 39 39 33 24 15 9 5 2 2 2 2 2 1 0 0 0 0 0 0
0 1 2 7 13 14 11 12 17 22 26 28 30 29 29 33 39 42 41 39 39 42 42 38 37 39 37 32 24 17 11 7 4 3 3 3 2 1 0 0 0 0 0 0
1 2 4 9 14 14 13 16 20 23 25 29 33 36 38 43 47 48 47 45 44 44 41 36 35 37 35 32 26 19 15 12 8 4 3 3 2 1 0 0 0 0 0 0
3 4 7 11 13 14 15 19 23 24 25 30 36 40 43 46 48 48 47 44 43 41 37 33 32 33 34 32 25 20 16 14 11 7 4 4 2 1 0 0 0 0 0 0
6 8 10 11 11 12 15 20 24 26 27 30 36 39 41 42 42 41 40 37 34 34 31 28 28 29 30 28 23 18 15 13 11 8 6 5 2 0 0 0 0 0 0 0
7 7 8 9 9 9 12 18 25 28 29 29 32 35 36 36 35 32 29 28 26 25 23 22 23 24 24 22 20 17 14 12 10 8 6 5 2 0 0 0 0 0 0 0
3 3 5 7 8 9 11 16 22 25 24 24 26 28 30 30 27 23 20 20 20 17 15 16 18 17 16 17 17 17 14 12 9 7 6 4 2 0 0 0 0 0 0 0
1 1 2 4 7 8 10 13 16 18 17 18 20 22 22 21 18 16 14 15 15 12 9 10 10 9 9 12 14 15 13 10 8 7 5 3 1 0 0 0 0 0 0 0
0 0 0 2 4 6 7 8 10 12 12 12 14 15 15 14 12 11 9 8 7 6 4 3 4 4 5 8 11 12 9 6 5 4 4 3 1 0 0 0 0 0 0 0
0 0 0 1 3 4 4 4 6 8 9 9 10 10 11 10 9 7 4 2 2 1 1 1 2 3 3 6 8 7 5 3 2 2 2 2 1 0 0 0 0 0 0 0
0 1 1 2 3 3 3 3 4 4 5 6 7 8 7 7 5 4 1 0 0 0 1 2 2 2 2 3 5 5 4 3 1 1 1 1 1 0 0 0 0 0 0 0
1 2 3 3 3 3 3 3 3 2 3 4 5 5 5 3 2 1 0 0 0 0 1 1 1 1 1 1 1 3 4 3 1 0 0 0 0 0 0 0 0 0 0 0
2 3 3 3 3 3 3 2 1 1 1 2 2 3 3 2 1 0 0 0 0 0 0 0 0 0 0 0 0 1 1 1 1 0 0 0 0 0 0 0 0 0 0 0
1 2 2 2 2 2 2 1 0 0 0 0 0 1 1 1 1 1 0 0 0 0 0 0 0 0 0 0 0 0 0 0 0 0 0 0 0 0 0 0 0 0 0 0
0 1 1 1 1 1 1 0 0 0 0 0 0 0 0 0 0 0 0 0 0 0 0 0 0 0 0 0 0 0 0 0 0 1 1 1 1 0 0 0 0 0 0 0
0 0 0 0 0 0 0 0 0 0 0 0 0 0 0 0 0 0 0 0 0 0 0 0 0 0 0 0 0 0 0 0 0 1 2 2 1 0 0 0 0 0 0 0
0 0 0 0 0 0 0 0 0 0 0 0 0 0 0 0 0 0 0 0 0 0 0 0 0 0 0 0 0 0 0 0 0 0 1 1 1 0 0 0 0 0 0 0
0 0 0 0 0 0 0 0 0 0 0 0 0 0 0 0 0 0 0 0 0 0 0 0 0 0 0 0 0 0 0 0 0 0 0 0 0 0 0 0 0 0 0 0
0 0 0 0 0 0 0 0 0 0 0 0 0 0 0 0 0 0 0 0 0 0 0 0 0 0 0 0 0 0 0 0 0 0 0 0 0 0 0 0 0 0 0 0
0 0 0 0 0 0 0 0 0 0 0 0 0 0 0 0 0 0 0 0 0 0 0 0 0 0 0 0 0 0 0 0 0 0 0 0 0 0 0 0 0 0 0 0
0 0 0 0 0 0 0 0 0 0 0 0 0 0 0 0 0 0 0 0 0 0 0 0 0 0 0 0 0 0 0 0 0 0 0 0 0 0 0 0 0 0 1 1
0 0 0 0 0 0 0 0 0 0 0 0 0 0 0 0 0 0 0 0 0 0 0 0 0 0 0 0 0 0 0 0 0 0 0 0 0 0 0 0 0 1 2 2

GEFSNGP_con_probscp_168.txt.gz
Probability
0 0 0 0 0 0 0 0 0 0 2 5 6 5 9 17 23 31 45 53 53 53 53 48 43 40 38 37 36 35 36 39 41 38 29 22 19 16 15 14 12 12 11 9
0 0 0 0 0 0 0 0 0 1 4 7 8 9 14 21 26 34 45 53 56 61 62 57 51 46 44 46 45 44 43 44 44 40 33 26 21 18 16 15 12 10 10 9
0 0 0 0 0 0 0 1 2 5 10 14 17 18 23 30 34 40 47 52 57 64 69 67 61 55 54 56 57 55 53 53 51 45 37 30 25 22 18 15 11 8 7 7
0 0 0 1 1 1 2 5 10 15 20 25 28 27 29 35 41 47 51 55 60 64 68 70 68 63 59 60 62 62 60 59 55 48 41 34 30 27 22 16 12 9 8 7
0 0 1 2 3 4 6 12 21 27 31 34 32 28 32 40 46 51 56 63 68 69 70 74 73 69 65 64 66 67 65 62 57 51 45 39 34 29 24 21 17 14 12 11
0 0 2 7 9 9 10 20 32 38 39 39 36 34 42 49 52 54 60 69 73 73 76 80 80 76 72 69 69 70 66 61 56 51 46 41 34 28 27 26 23 18 15 15
0 1 6 16 21 20 25 38 48 51 51 49 45 47 52 57 57 57 62 69 72 74 79 83 83 80 75 70 67 66 63 59 53 47 43 38 32 29 28 27 24 21 18 17
6 9 20 34 38 40 49 58 62 63 61 58 53 52 57 60 60 60 63 67 70 72 75 79 80 78 73 68 62 60 61 57 49 43 39 34 31 29 27 25 23 22 20 18
20 25 36 48 53 55 61 65 64 62 60 57 55 55 59 63 64 61 62 66 68 67 68 70 72 71 68 66 61 59 58 55 48 43 38 34 30 27 24 22 21 20 19 17
32 34 40 47 51 53 55 58 58 56 53 53 55 57 61 65 64 60 59 62 64 61 59 60 60 59 60 61 61 59 56 51 45 41 37 34 29 25 22 20 18 17 17 17
34 33 35 38 40 41 43 45 47 48 47 47 49 52 55 59 58 54 53 56 57 55 52 51 50 49 50 53 56 55 51 45 39 36 34 31 27 22 18 14 12 12 13 13
26 27 29 31 30 29 30 32 35 36 36 37 39 41 43 45 45 44 45 47 48 47 45 44 43 43 43 46 48 48 44 39 34 32 31 29 25 20 13 8 4 4 5 6
17 17 20 23 22 20 20 22 25 26 27 27 29 31 32 33 33 33 35 37 36 36 39 39 38 36 37 39 40 39 37 33 30 29 29 28 24 19 14 7 2 1 1 1
11 10 12 13 12 11 12 16 19 21 21 21 23 26 27 28 29 28 28 26 25 27 30 31 30 28 28 31 32 31 28 26 24 24 25 23 21 17 14 11 6 3 1 0
7 7 7 6 4 3 5 9 13 15 15 16 20 24 26 27 28 27 24 21 20 20 22 24 23 20 20 22 23 21 18 16 16 17 17 15 13 12 11 10 9 6 3 1
4 4 4 3 1 0 1 4 7 9 9 10 14 19 23 25 24 23 21 19 17 17 18 18 15 13 13 13 13 12 9 8 8 9 9 8 6 6 6 7 7 6 4 2
1 1 1 1 0 0 0 1 2 5 6 6 7 11 16 19 19 19 18 17 16 15 15 12 9 7 7 7 6 6 4 3 3 4 5 5 3 3 3 3 4 4 3 1
0 0 0 0 0 0 0 0 1 4 6 5 4 6 10 12 13 15 15 15 14 12 10 6 4 3 3 3 3 2 1 1 2 3 3 3 3 2 1 2 2 3 2 2
0 0 0 0 1 1 1 0 1 3 4 3 4 4 7 9 10 11 12 11 10 8 6 3 2 1 1 1 1 0 0 0 1 2 2 1 1 1 1 1 1 1 2 2
0 0 0 1 2 2 2 1 1 2 1 1 3 4 5 6 7 7 7 7 6 4 4 3 3 2 1 0 0 0 0 0 0 1 1 0 0 0 0 0 0 0 1 1
0 0 0 1 2 3 2 1 1 0 0 0 2 4 4 3 3 3 3 4 4 4 3 3 3 2 1 0 0 0 0 0 0 0 0 0 0 0 0 0 0 0 0 0
0 0 0 1 2 2 1 1 0 0 0 0 2 3 3 2 1 0 2 4 5 4 3 3 3 2 1 0 0 0 0 0 0 0 0 0 0 0 0 0 0 0 0 0
0 0 0 0 1 1 1 1 1 0 0 0 1 1 1 1 1 0 2 4 4 3 2 3 2 1 0 0 0 0 0 0 0 0 0 0 0 0 0 0 0 0 0 0
0 0 0 0 1 2 2 2 1 0 0 0 0 0 0 0 0 0 1 2 1 1 1 1 1 0 0 0 0 0 0 0 0 0 0 0 0 0 0 0 0 0 0 0
0 0 1 1 2 3 3 2 1 0 0 0 0 0 0 0 0 0 0 0 0 0 0 0 0 0 0 0 0 0 0 0 0 0 0 0 0 0 0 0 0 0 0 0
0 0 1 2 3 3 3 2 1 0 0 0 0 0 0 0 0 0 0 0 0 0 0 0 0 0 0 0 0 0 0 0 0 0 0 0 0 0 0 0 0 0 0 0
0 0 1 3 3 3 3 2 1 0 0 0 0 0 0 0 0 0 0 0 0 0 0 0 0 0 0 0 0 0 0 0 0 0 0 0 0 0 0 0 0 0 0 0

GEFSNGP_con_probscp_174.txt.gz
Probability
0 0 0 0 0 0 0 0 0 1 6 14 19 21 25 30 37 47 55 65 75 82 85 85 83 77 70 69 73 74 69 65 64 59 52 48 45 42 37 27 20 19 19 19
0 0 0 0 0 0 0 0 0 2 7 15 21 27 31 34 39 47 55 65 77 85 88 89 87 82 75 73 76 77 73 67 66 63 58 55 51 46 40 32 27 25 22 20
0 0 0 0 0 0 1 2 3 6 13 20 28 37 45 48 49 53 60 69 79 86 90 92 92 89 82 78 77 77 74 72 71 69 67 64 58 51 47 40 35 31 25 20
0 0 0 0 1 1 2 5 8 14 22 29 36 46 56 62 63 64 69 76 81 84 88 92 94 92 85 80 79 77 75 75 75 74 73 70 65 60 55 46 39 34 27 22
1 0 0 1 2 3 5 11 18 26 33 38 41 48 59 68 70 71 75 79 81 83 87 92 95 94 89 85 83 81 78 78 78 76 75 73 69 64 56 47 41 36 29 26
1 0 1 2 3 5 11 21 32 41 48 51 51 55 63 71 74 74 77 80 81 82 86 92 96 96 92 88 86 84 83 82 80 77 75 72 68 61 53 46 42 37 32 30
1 1 3 8 12 18 29 42 51 56 63 67 68 68 71 75 76 76 78 79 80 81 84 89 94 94 91 87 86 86 86 83 79 74 69 67 66 61 52 47 44 38 34 33
8 10 16 24 31 43 56 64 66 67 72 75 75 75 74 73 73 74 76 78 78 80 82 82 85 87 86 86 86 84 82 78 74 68 63 61 62 60 55 50 45 39 34 33
24 28 35 42 49 59 67 70 69 69 70 70 70 70 70 70 70 69 71 72 73 76 77 74 73 75 78 81 81 79 75 72 68 66 62 59 58 56 52 47 41 34 31 29
38 41 46 48 51 55 59 62 63 61 60 60 62 63 65 67 68 67 66 64 65 68 69 67 64 66 70 74 75 73 71 69 66 64 61 56 52 47 42 38 34 31 29 28
44 46 47 45 43 45 48 50 52 52 52 53 55 57 60 63 65 64 62 60 60 62 62 60 61 63 66 68 69 66 65 65 64 61 57 50 43 35 29 25 23 23 23 24
41 42 43 41 38 38 39 39 42 45 47 48 50 52 54 56 59 60 59 57 56 56 57 56 57 60 63 62 61 60 58 57 56 54 49 43 35 28 22 16 12 10 11 11
31 31 33 34 34 33 32 32 35 38 40 41 42 44 46 48 51 53 53 52 50 50 50 50 50 51 54 56 56 56 53 49 45 42 39 34 30 27 24 17 10 5 3 3
21 20 20 23 26 26 25 25 27 29 29 28 28 30 33 36 39 41 42 41 40 39 39 40 40 40 43 49 53 53 48 41 36 32 28 25 25 26 26 23 17 11 6 3
13 13 11 13 16 16 14 16 18 19 17 15 15 18 21 24 28 30 30 30 30 29 28 29 30 29 32 37 42 42 37 30 26 23 20 19 20 22 23 24 21 15 9 5
7 6 5 6 7 7 6 7 9 10 10 10 10 12 14 18 21 23 24 24 23 23 22 22 20 21 24 27 29 29 24 17 14 15 14 14 15 16 17 19 18 13 9 7
3 3 2 3 3 3 3 4 5 6 8 9 11 13 13 14 16 19 20 19 20 20 19 17 14 14 18 20 20 18 13 7 5 8 10 11 11 12 13 14 13 11 8 5
2 2 2 2 2 2 4 4 4 5 7 11 15 17 16 15 16 17 18 18 19 19 17 14 11 10 11 13 13 9 5 2 2 4 7 8 9 10 11 10 9 9 7 5
1 1 2 1 1 2 3 3 3 4 8 12 17 20 21 20 19 19 20 21 20 20 17 13 8 7 7 8 7 4 1 1 1 3 4 5 6 8 8 7 7 8 8 6
0 0 0 0 0 1 2 2 2 4 7 12 17 21 24 23 21 20 20 20 19 20 18 11 7 7 7 5 3 1 1 1 1 2 2 3 4 5 5 5 5 6 7 6
0 0 0 0 0 0 1 2 3 4 7 11 15 18 20 19 19 18 17 15 15 17 15 9 8 8 7 4 1 1 2 2 2 2 2 3 4 3 2 3 3 3 5 5
0 0 0 0 1 1 1 3 3 5 7 10 12 14 15 15 15 14 13 12 11 11 10 8 8 7 6 4 2 1 2 2 3 3 3 4 4 1 1 1 1 1 2 2
0 0 0 0 1 1 2 3 4 5 7 9 10 11 12 13 12 10 9 9 8 6 6 6 5 4 3 3 2 1 1 1 1 2 3 3 2 0 0 0 0 0 0 0
0 0 0 0 0 1 2 2 3 4 6 7 7 7 9 9 8 6 5 4 4 3 3 3 2 1 1 2 2 1 1 1 0 1 1 1 0 0 0 0 0 0 0 0
0 0 0 0 0 1 1 1 1 3 4 4 3 3 4 4 4 3 2 1 1 1 1 0 0 0 0 1 1 1 1 1 0 0 0 0 0 0 0 0 0 0 0 0
0 0 0 0 0 0 0 0 1 2 2 2 2 1 1 1 1 1 0 0 0 0 0 0 0 0 0 0 0 0 1 1 0 0 0 0 0 0 0 0 0 0 0 0
0 0 0 0 0 0 0 0 0 1 1 1 2 2 1 0 0 0 0 0 0 0 0 0 0 0 0 0 0 0 0 0 0 0 0 0 0 0 0 0 0 0 0 0